Zurück zum Katalog

ORBCOMM FM 17

AktivKommunikationLEO
NORAD 25413·PAYLOAD·🇺🇸 United States

Gestartet Aug 2, 1998 von Cape Canaveral Space Force Station

Loading…

Nächste Überflüge (nächste 24 Stunden)

TLE

AktuellSource: Space-Track

Epoche: Sep 14, 2026, 01:17 UTC

1 25413U 98046A   26257.05415330  .00000427  00000-0  19402-3 0  9997
2 25413  44.9929 273.8119 0004702 295.7412  64.2949 14.36005931468394

Verfolge ORBCOMM FM 17 in Echtzeit mit AllMySat

Download on the App Store